EW8543 Weather Reports


Display with metric or nautical units.
time (UTC)temp
F
wind
direction
speed
MPH
gust
MPH
rain 1hr
in
rain 24hr
in
rain mn
in
humidity
%
barometer
mb
20260506194549 55 344 3.0 8.0 0.00 0.00 0.00 72 1012.2
20260506194037 55 17 3.0 8.0 0.00 0.00 0.00 73 1012.2
20260506193527 55 32 2.0 8.0 0.00 0.00 0.00 73 1012.2
20260506193036 55 355 4.0 9.0 0.00 0.00 0.00 72 1012.2
20260506192525 55 350 4.0 9.0 0.00 0.00 0.00 73 1012.1
20260506192027 55 346 5.0 10.0 0.00 0.00 0.00 72 1012.0
20260506191536 55 346 5.0 10.0 0.00 0.00 0.00 72 1011.9
20260506191024 55 17 2.0 11.0 0.00 0.00 0.00 73 1011.9
20260506190533 55 298 4.0 11.0 0.00 0.00 0.00 73 1011.9
20260506190030 55 336 5.0 13.0 0.00 0.00 0.00 73 1011.8
20260506185540 55 355 4.0 13.0 0.00 0.00 0.00 73 1011.7
20260506185028 55 15 5.0 11.0 0.00 0.00 0.00 73 1011.6
20260506184558 55 19 4.0 11.0 0.00 0.00 0.00 73 1011.6
20260506184044 55 5 4.0 13.0 0.00 0.00 0.00 73 1011.5
20260506183548 55 25 5.0 13.0 0.00 0.00 0.00 74 1011.5
20260506183035 55 28 3.0 12.0 0.00 0.00 0.00 74 1011.4
20260506182524 55 23 4.0 14.0 0.00 0.00 0.00 74 1011.3
20260506182032 55 9 8.0 14.0 0.00 0.00 0.00 74 1011.2
20260506181538 55 355 7.0 12.0 0.00 0.00 0.00 74 1011.2
20260506181025 55 11 4.0 11.0 0.00 0.00 0.00 75 1011.1
20260506180535 55 351 6.0 12.0 0.00 0.00 0.00 75 1011.1
20260506180036 55 5 6.0 13.0 0.00 0.00 0.00 74 1011.1
20260506175525 55 13 5.0 13.0 0.00 0.00 0.00 74 1011.1
20260506175029 55 9 7.0 13.0 0.00 0.00 0.00 74 1011.0
20260506174538 55 9 7.0 15.0 0.00 0.00 0.00 74 1010.9
20260506174026 55 15 7.0 15.0 0.00 0.00 0.00 74 1010.8
20260506173535 55 344 7.0 14.0 0.00 0.00 0.00 75 1010.8
20260506173058 55 29 6.0 15.0 0.00 0.00 0.00 75 1010.8
20260506172527 55 16 6.0 17.0 0.00 0.00 0.00 75 1010.7
20260506172037 55 328 7.0 17.0 0.00 0.00 0.00 74 1010.7
20260506171525 55 317 5.0 14.0 0.00 0.00 0.00 75 1010.6
20260506171054 55 342 8.0 14.0 0.00 0.00 0.00 75 1010.6
20260506170538 55 333 9.0 13.0 0.00 0.00 0.00 75 1010.6
20260506170058 55 355 6.0 15.0 0.00 0.00 0.00 75 1010.5
20260506165545 55 9 8.0 15.0 0.00 0.00 0.00 75 1010.5
20260506165031 55 347 8.0 14.0 0.00 0.00 0.00 75 1010.5
20260506164534 55 5 6.0 15.0 0.00 0.00 0.00 75 1010.6
20260506164023 55 5 6.0 16.0 0.00 0.00 0.00 75 1010.5
20260506163552 55 360 9.0 16.0 0.00 0.00 0.00 75 1010.5
20260506163038 55 355 8.0 13.0 0.00 0.00 0.00 75 1010.5
20260506162527 55 24 7.0 15.0 0.00 0.00 0.00 75 1010.4
20260506162028 55 355 8.0 15.0 0.00 0.00 0.00 75 1010.5
20260506161537 55 331 7.0 14.0 0.00 0.00 0.00 75 1010.4
20260506161026 56 360 6.0 15.0 0.00 0.00 0.00 74 1010.4
20260506160536 56 338 6.0 15.0 0.00 0.00 0.00 73 1010.5
20260506160034 56 54 6.0 13.0 0.00 0.00 0.00 73 1010.4
20260506155542 56 346 7.0 17.0 0.00 0.00 0.00 73 1010.3
20260506155049 56 355 10.0 19.0 0.00 0.00 0.00 72 1010.4
20260506154537 56 22 5.0 19.0 0.00 0.00 0.00 72 1010.4
20260506154022 56 34 7.0 18.0 0.00 0.00 0.00 72 1010.4
20260506153546 56 29 9.0 20.0 0.00 0.00 0.00 72 1010.4
20260506153034 56 339 11.0 20.0 0.00 0.00 0.00 71 1010.4
20260506152522 57 12 12.0 20.0 0.00 0.00 0.00 70 1010.3
20260506152030 57 355 9.0 20.0 0.00 0.00 0.00 71 1010.3
20260506151534 57 5 10.0 21.0 0.00 0.00 0.00 71 1010.3
20260506151022 56 33 11.0 21.0 0.00 0.00 0.00 70 1010.3
20260506150532 57 360 7.0 22.0 0.00 0.00 0.00 70 1010.3
20260506150054 57 5 12.0 22.0 0.00 0.00 0.00 70 1010.2
20260506145540 58 11 12.0 20.0 0.00 0.00 0.00 68 1010.2
20260506145025 57 19 10.0 16.0 0.00 0.00 0.00 70 1010.1
20260506144534 57 303 8.0 18.0 0.00 0.00 0.00 70 1010.2
20260506144024 58 324 9.0 18.0 0.00 0.00 0.00 68 1010.2
20260506143559 58 329 9.0 19.0 0.00 0.00 0.00 68 1010.2
20260506143027 57 13 12.0 19.0 0.00 0.00 0.00 70 1010.2
20260506142532 58 12 8.0 17.0 0.00 0.00 0.00 69 1010.3
20260506142039 59 337 7.0 18.0 0.00 0.00 0.00 68 1010.3
20260506141526 60 340 10.0 18.0 0.00 0.00 0.00 69 1010.3
20260506141029 59 342 8.0 17.0 0.00 0.00 0.00 70 1010.1
20260506140534 59 15 9.0 19.0 0.00 0.00 0.00 71 1010.3
20260506140057 58 350 11.0 19.0 0.00 0.00 0.00 71 1010.3
20260506135525 59 25 10.0 19.0 0.00 0.00 0.00 71 1010.2
20260506135034 59 355 12.0 21.0 0.00 0.00 0.00 71 1010.3
20260506134543 59 11 10.0 21.0 0.00 0.00 0.00 71 1010.2
20260506134026 59 348 10.0 17.0 0.00 0.00 0.00 71 1010.2
20260506133535 59 21 9.0 16.0 0.00 0.00 0.00 72 1010.2
20260506133022 58 332 6.0 18.0 0.00 0.00 0.00 73 1010.2
20260506132531 57 14 12.0 18.0 0.00 0.00 0.00 75 1010.2
20260506132059 56 45 8.0 17.0 0.00 0.00 0.00 75 1010.2
20260506131528 56 346 10.0 17.0 0.00 0.00 0.00 74 1010.2
20260506131101 57 360 8.0 15.0 0.00 0.00 0.00 73 1010.1
20260506130530 58 296 7.0 16.0 0.00 0.00 0.00 73 1010.2
20260506130032 58 302 8.0 19.0 0.00 0.00 0.00 73 1010.1
20260506125538 58 22 9.0 19.0 0.00 0.00 0.00 73 1010.0
20260506125027 58 346 8.0 18.0 0.00 0.00 0.00 73 1010.1
20260506124556 58 14 9.0 18.0 0.00 0.00 0.00 72 1010.0
20260506124022 58 5 8.0 17.0 0.00 0.00 0.00 74 1010.0
20260506123528 57 284 8.0 17.0 0.00 0.00 0.00 75 1010.0
20260506123056 57 355 9.0 17.0 0.00 0.00 0.00 74 1009.9
20260506122525 57 5 10.0 17.0 0.00 0.00 0.00 75 1010.0
20260506122031 57 355 9.0 18.0 0.00 0.00 0.00 74 1010.0
20260506121540 57 317 7.0 18.0 0.00 0.00 0.00 74 1010.0
20260506121026 57 351 9.0 17.0 0.00 0.00 0.00 73 1010.0
20260506120555 56 333 10.0 17.0 0.00 0.00 0.00 73 1009.9
20260506120036 57 355 9.0 15.0 0.00 0.00 0.00 73 1009.9
20260506115524 56 48 9.0 15.0 0.00 0.00 0.00 73 1009.9
20260506115029 56 355 10.0 17.0 0.00 0.00 0.00 72 1009.8
20260506114538 57 360 10.0 17.0 0.00 0.00 0.00 72 1009.9
20260506114025 56 341 7.0 16.0 0.00 0.00 0.00 73 1009.9
20260506113533 56 333 8.0 16.0 0.00 0.00 0.00 73 1009.8
20260506113041 57 355 7.0 16.0 0.00 0.00 0.00 72 1009.9
20260506112526 58 355 9.0 16.0 0.00 0.00 0.00 70 1009.8
20260506112054 58 355 9.0 18.0 0.00 0.00 0.00 71 1009.9
20260506111521 58 11 10.0 18.0 0.00 0.00 0.00 72 1009.8
20260506111031 57 355 5.0 17.0 0.00 0.00 0.00 74 1009.8
20260506110540 57 300 11.0 20.0 0.00 0.00 0.00 73 1009.9
20260506110037 57 38 11.0 20.0 0.00 0.00 0.00 74 1009.8
20260506105527 57 346 6.0 17.0 0.00 0.00 0.00 75 1009.9
20260506105034 57 325 9.0 18.0 0.00 0.00 0.00 74 1009.9
20260506104523 57 20 11.0 18.0 0.00 0.00 0.00 74 1009.9
20260506104030 57 15 10.0 19.0 0.00 0.00 0.00 73 1009.8
20260506103559 58 332 10.0 19.0 0.00 0.00 0.00 74 1009.8
20260506103048 58 5 8.0 15.0 0.00 0.00 0.00 74 1009.8
20260506102556 57 290 9.0 19.0 0.00 0.00 0.00 74 1009.8
20260506102023 57 309 11.0 19.0 0.00 0.00 0.00 74 1009.7
20260506101527 57 285 9.0 17.0 0.00 0.00 0.00 74 1009.7
20260506101035 57 25 11.0 17.0 0.00 0.00 0.00 73 1009.7
20260506100523 57 355 10.0 17.0 0.00 0.00 0.00 72 1009.7
20260506100025 58 360 7.0 13.0 0.00 0.00 0.00 71 1009.7
20260506095549 58 28 7.0 13.0 0.00 0.00 0.00 71 1009.7
20260506095037 58 28 7.0 18.0 0.00 0.00 0.00 71 1009.7
20260506094525 57 337 8.0 18.0 0.00 0.00 0.00 72 1009.7
20260506094032 57 350 9.0 14.0 0.00 0.00 0.00 72 1009.7
20260506093540 57 321 7.0 14.0 0.00 0.00 0.00 73 1009.7
20260506093024 57 44 7.0 14.0 0.00 0.00 0.00 74 1009.7
20260506092533 56 350 6.0 15.0 0.00 0.00 0.00 76 1009.6
20260506092041 56 348 9.0 17.0 0.00 0.00 0.00 76 1009.6
20260506091529 56 325 9.0 17.0 0.00 0.00 0.00 76 1009.6
20260506091052 56 42 6.0 16.0 0.00 0.00 0.00 77 1009.6
20260506090540 56 329 9.0 16.0 0.00 0.00 0.00 75 1009.6
20260506090041 56 350 5.0 16.0 0.00 0.00 0.00 77 1009.6
20260506085549 56 11 9.0 16.0 0.00 0.00 0.00 76 1009.5
20260506085036 55 30 7.0 15.0 0.00 0.00 0.00 79 1009.5
20260506084540 55 18 10.0 19.0 0.00 0.00 0.00 77 1009.5
20260506084028 56 9 9.0 17.0 0.00 0.00 0.00 77 1009.4
20260506083537 56 344 10.0 17.0 0.00 0.00 0.00 78 1009.3
20260506083025 55 322 6.0 13.0 0.00 0.00 0.00 80 1009.3
20260506082533 55 348 6.0 16.0 0.00 0.00 0.00 81 1009.4
20260506082037 55 5 8.0 16.0 0.00 0.00 0.00 81 1009.4
20260506081525 55 32 9.0 15.0 0.00 0.00 0.00 81 1009.5
20260506081054 55 5 9.0 15.0 0.00 0.00 0.00 82 1009.4
20260506080521 54 360 6.0 16.0 0.00 0.00 0.00 83 1009.4
20260506073028 53 348 7.0 16.0 0.00 0.00 0.00 84 1009.3
20260506072537 53 327 8.0 15.0 0.00 0.00 0.00 84 1009.3
20260506072025 53 34 6.0 16.0 0.00 0.00 0.00 85 1009.2
20260506071531 53 313 10.0 16.0 0.00 0.00 0.00 85 1009.2
20260506071038 52 13 7.0 15.0 0.00 0.00 0.00 85 1009.2
20260506070528 52 13 8.0 18.0 0.00 0.00 0.00 84 1009.2
20260506062038 52 46 6.0 13.0 0.00 0.00 0.00 84 1009.0
20260506061528 52 333 8.0 15.0 0.00 0.00 0.00 84 1009.0
20260506061035 52 349 7.0 15.0 0.00 0.00 0.00 84 1009.0
20260506060525 52 13 5.0 12.0 0.00 0.00 0.00 84 1009.0
20260506051021 51 350 6.0 13.0 0.00 0.00 0.00 85 1009.0
20260506050530 52 5 4.0 12.0 0.00 0.00 0.00 84 1008.9
20260506045024 51 329 7.0 16.0 0.00 0.00 0.00 82 1009.0
20260506044532 51 9 6.0 14.0 0.00 0.00 0.00 82 1009.0
20260506044021 51 350 8.0 14.0 0.00 0.00 0.00 82 1009.0
20260506043530 51 15 5.0 12.0 0.00 0.00 0.00 82 1009.1
20260506043035 51 336 5.0 14.0 0.00 0.00 0.00 82 1009.0
20260506042524 51 355 7.0 14.0 0.00 0.00 0.00 82 1009.1
20260506042033 51 351 5.0 12.0 0.00 0.00 0.00 82 1009.1
20260506041542 51 350 6.0 12.0 0.00 0.00 0.00 82 1009.0
20260506041029 51 11 3.0 12.0 0.00 0.00 0.00 82 1009.1
20260506040534 51 329 7.0 12.0 0.00 0.00 0.00 82 1009.1
20260506040036 51 5 6.0 11.0 0.00 0.00 0.00 83 1009.1
20260506035524 51 340 4.0 11.0 0.00 0.00 0.00 82 1009.0
20260506035033 51 342 7.0 12.0 0.00 0.00 0.00 82 1009.2
20260506034522 51 355 5.0 12.0 0.00 0.00 0.00 82 1009.1
20260506034026 51 355 5.0 15.0 0.00 0.00 0.00 82 1009.2
20260506033535 51 5 7.0 15.0 0.00 0.00 0.00 82 1009.1
20260506033024 51 345 6.0 13.0 0.00 0.00 0.00 82 1009.2
20260506032533 51 5 6.0 13.0 0.00 0.00 0.00 82 1009.3
20260506032021 51 346 6.0 11.0 0.00 0.00 0.00 82 1009.3
20260506031526 51 323 5.0 11.0 0.00 0.00 0.00 82 1009.3
20260506031036 51 50 4.0 11.0 0.00 0.00 0.00 82 1009.4
20260506030544 51 64 5.0 12.0 0.00 0.00 0.00 81 1009.4
20260506030026 51 41 4.0 12.0 0.00 0.00 0.00 81 1009.5
20260506025530 51 35 5.0 11.0 0.00 0.00 0.00 80 1009.5
20260506025039 51 347 4.0 10.0 0.00 0.00 0.00 79 1009.5
20260506024548 51 17 4.0 11.0 0.00 0.00 0.00 78 1009.5
20260506024034 51 360 5.0 11.0 0.00 0.00 0.00 78 1009.5
20260506023523 51 53 5.0 14.0 0.00 0.00 0.00 78 1009.6
20260506023028 51 325 4.0 13.0 0.00 0.00 0.00 78 1009.5
20260506022536 50 336 6.0 13.0 0.00 0.00 0.00 79 1009.6
20260506022024 50 16 3.0 9.0 0.00 0.00 0.00 80 1009.7
20260506021534 50 346 4.0 9.0 0.00 0.00 0.00 81 1009.7
20260506021022 50 343 4.0 12.0 0.00 0.00 0.00 81 1009.7
20260506020527 50 5 5.0 12.0 0.00 0.00 0.00 82 1009.7
20260506020050 50 5 3.0 8.0 0.00 0.00 0.00 82 1009.8
20260506015538 49 54 3.0 9.0 0.00 0.00 0.00 82 1009.8
20260506015027 50 10 4.0 9.0 0.00 0.00 0.00 81 1009.8
20260506014531 49 19 4.0 9.0 0.00 0.00 0.00 81 1009.8
20260506014039 50 340 4.0 9.0 0.00 0.00 0.00 82 1009.8
20260506013528 50 9 3.0 9.0 0.00 0.00 0.00 81 1009.8
20260506013036 50 13 3.0 12.0 0.00 0.00 0.00 81 1009.8
20260506012525 50 9 4.0 12.0 0.00 0.00 0.00 80 1009.8
20260506012048 50 327 3.0 12.0 0.00 0.00 0.00 80 1009.8
20260506011536 50 348 4.0 11.0 0.00 0.00 0.00 80 1009.7
20260506011024 50 351 5.0 11.0 0.00 0.00 0.00 80 1009.7
20260506010533 50 5 3.0 11.0 0.00 0.00 0.00 79 1009.7
20260506010036 50 38 5.0 11.0 0.00 0.00 0.00 79 1009.8
20260506005521 50 338 3.0 8.0 0.00 0.00 0.00 79 1009.9
20260506005049 50 9 4.0 12.0 0.00 0.00 0.00 80 1009.9
20260506004537 50 26 6.0 12.0 0.00 0.00 0.00 80 1009.9
20260506004025 50 355 3.0 10.0 0.00 0.00 0.00 80 1010.0
20260506003550 50 22 4.0 10.0 0.00 0.00 0.00 79 1010.0
20260506003100 50 13 5.0 10.0 0.00 0.00 0.00 79 1010.1
20260506002529 50 9 4.0 13.0 0.00 0.00 0.00 79 1010.1
20260506002101 50 10 6.0 13.0 0.00 0.00 0.00 79 1010.2
20260506001524 50 31 5.0 10.0 0.00 0.00 0.00 80 1010.2
20260506001057 50 5 3.0 10.0 0.00 0.00 0.00 80 1010.3
20260506000526 50 17 4.0 11.0 0.00 0.00 0.00 80 1010.3
20260506000029 50 11 5.0 12.0 0.00 0.00 0.00 80 1010.4
20260505235538 50 339 4.0 13.0 0.00 0.00 0.00 79 1010.4
20260505235042 50 19 4.0 13.0 0.00 0.00 0.00 79 1010.4
20260505234530 49 360 3.0 11.0 0.00 0.00 0.00 79 1010.4
20260505234039 49 331 5.0 11.0 0.00 0.00 0.00 79 1010.5
20260505233529 49 348 3.0 10.0 0.00 0.00 0.00 79 1010.5
20260505233033 49 355 4.0 10.0 0.00 0.00 0.00 79 1010.5
20260505232522 49 345 5.0 12.0 0.00 0.00 0.00 78 1010.6
20260505232031 49 338 4.0 12.0 0.00 0.00 0.00 78 1010.6
20260505231520 49 344 3.0 9.0 0.00 0.00 0.00 78 1010.6
20260505231028 50 340 5.0 11.0 0.00 0.00 0.00 78 1010.7
20260505230533 50 44 3.0 11.0 0.00 0.00 0.00 78 1010.6
20260505230059 50 339 5.0 11.0 0.00 0.00 0.00 78 1010.7
20260505225547 50 5 3.0 14.0 0.00 0.00 0.00 78 1010.7
20260505225034 50 355 5.0 14.0 0.00 0.00 0.00 78 1010.7
20260505224523 50 24 3.0 11.0 0.00 0.00 0.00 77 1010.7
20260505224027 50 360 4.0 11.0 0.00 0.00 0.00 78 1010.7
20260505223535 50 11 4.0 10.0 0.00 0.00 0.00 77 1010.7
20260505223025 50 344 4.0 14.0 0.00 0.00 0.00 77 1010.8
20260505222533 50 339 3.0 14.0 0.00 0.00 0.00 77 1010.8
20260505222023 50 350 4.0 12.0 0.00 0.00 0.00 77 1010.8
20260505221528 50 355 2.0 12.0 0.00 0.00 0.00 77 1010.9
20260505221034 50 5 3.0 10.0 0.00 0.00 0.00 77 1010.9
20260505220524 50 5 3.0 10.0 0.00 0.00 0.00 76 1010.9
20260505220024 50 14 4.0 12.0 0.00 0.00 0.00 76 1011.0
20260505215549 50 5 5.0 12.0 0.00 0.00 0.00 76 1011.0
20260505215033 50 55 4.0 12.0 0.00 0.00 0.00 76 1011.0
20260505214521 50 32 6.0 12.0 0.00 0.00 0.00 76 1011.0
20260505214030 50 59 4.0 10.0 0.00 0.00 0.00 76 1011.1
20260505213539 50 55 3.0 10.0 0.00 0.00 0.00 76 1011.0
20260505213023 51 19 4.0 13.0 0.00 0.00 0.00 76 1011.0
20260505212532 51 9 5.0 13.0 0.00 0.00 0.00 75 1011.1
20260505212039 51 36 5.0 12.0 0.00 0.00 0.00 75 1011.1
20260505211528 51 360 5.0 12.0 0.00 0.00 0.00 75 1011.1
20260505211037 51 32 4.0 9.0 0.00 0.00 0.00 76 1011.1
20260505210522 51 360 3.0 11.0 0.00 0.00 0.00 75 1011.1
20260505210046 51 9 5.0 11.0 0.00 0.00 0.00 75 1011.2
20260505205558 51 25 4.0 10.0 0.00 0.00 0.00 75 1011.2
20260505205046 51 360 4.0 13.0 0.00 0.00 0.00 76 1011.2
20260505204551 51 14 3.0 13.0 0.00 0.00 0.00 76 1011.2
20260505204019 51 40 5.0 14.0 0.00 0.00 0.00 75 1011.2
20260505203528 51 311 6.0 12.0 0.00 0.00 0.00 75 1011.1
20260505203037 52 16 3.0 10.0 0.00 0.00 0.00 75 1011.1
20260505202541 52 355 4.0 10.0 0.00 0.00 0.00 75 1011.1
20260505202028 52 53 3.0 9.0 0.00 0.00 0.00 75 1011.1
20260505201537 52 44 5.0 9.0 0.00 0.00 0.00 76 1011.1
20260505201045 52 5 3.0 13.0 0.00 0.00 0.00 77 1011.0
20260505200549 52 338 4.0 13.0 0.00 0.00 0.00 77 1011.0
20260505200029 52 360 7.0 13.0 0.00 0.00 0.00 77 1011.0
20260505195519 52 325 5.0 11.0 0.00 0.00 0.00 77 1010.9
20260505195028 52 9 4.0 13.0 0.00 0.00 0.00 76 1010.8